Date String (YYYY-MM-DD hh:mm:ss) UTC,Instrument flags,absolute air pressure of the measurement (hPa),sample flow rate (lpm),inlet stack bypass flow (lpm),air temperature of the measurement (°C),ambient temperature measured by the external sensor (°C),aerosol sample conditioner tube jacket temperature (°C),OPC LED temperature (°C),internal box temperature (°C),relative humidity of the measurement (%),span deviation,mass concentration of particles derived from Lorenz-Mie calculation of OPC scattering (μg/m³),mass concentration of particles derived from Lorenz-Mie calculation of OPC scattering (μg/m³),mass concentration of particles derived from Lorenz-Mie calculation of OPC scattering (μg/m³)
DateTimeUTC,F1_M11,P_M11,Q1_M11,Q2_M11,T1_M11,T2_M11,T3_M11,T4_M11,T5_M11,U1_M11,ZSPAN_M11,X2_M11,X0_M11,X1_M11
2023-10-10 08:00:00,SystemResetWarning,0824.9,5.00,000.00,029.3,027.8,000.0,037.7,030.8,9.0,0000.0,0003.57,0008.35,0003.16
2023-10-10 08:01:00,SystemResetWarning,0824.9,5.00,000.00,029.3,027.8,000.0,037.7,030.8,8.9,0000.0,0003.54,0007.76,0003.16
2023-10-10 08:02:00,SystemResetWarning,0824.9,5.00,000.00,029.3,027.8,000.0,037.7,030.8,8.9,0000.0,0003.53,0007.57,0003.16
2023-10-10 08:03:00,SystemResetWarning,0824.9,5.00,000.00,029.3,027.8,000.0,037.7,030.8,8.9,0000.0,0003.53,0007.69,0003.16
2023-10-10 08:04:00,SystemResetWarning,0824.9,5.00,000.00,029.3,027.8,000.0,037.7,030.8,8.9,0000.0,0003.53,0007.42,0003.15
2023-10-10 08:05:00,SystemResetWarning,0824.9,5.00,000.00,029.3,027.8,000.0,037.7,030.9,8.9,0000.0,0003.54,0007.86,0003.15
2023-10-10 08:06:00,SystemResetWarning,0824.8,5.00,000.00,029.3,027.8,000.0,037.7,030.9,8.9,0000.0,0003.58,0007.74,0003.15
2023-10-10 08:07:00,SystemResetWarning,0824.9,4.99,000.00,029.3,027.8,000.0,037.7,030.9,8.8,0000.0,0003.57,0007.74,0003.14
2023-10-10 08:08:00,SystemResetWarning,0824.8,5.00,000.00,029.3,027.8,000.0,037.7,030.9,8.8,0000.0,0003.56,0007.50,0003.13
2023-10-10 08:09:00,SystemResetWarning,0824.8,5.00,000.00,029.3,027.8,000.0,037.7,030.9,8.8,0000.0,0003.53,0007.32,0003.12
2023-10-10 08:10:00,SystemResetWarning,0824.8,5.00,000.00,029.3,027.8,000.0,037.7,030.9,8.7,0000.0,0003.49,0007.29,0003.11
2023-10-10 08:11:00,SystemResetWarning,0824.8,5.00,000.00,029.3,027.8,000.0,037.7,030.9,8.7,0000.0,0003.49,0007.42,0003.10
2023-10-10 08:12:00,SystemResetWarning,0824.8,5.00,000.00,029.3,027.8,000.0,037.7,030.9,8.7,0000.0,0003.46,0007.35,0003.08
2023-10-10 08:13:00,SystemResetWarning,0824.8,5.00,000.00,029.3,027.8,000.0,037.7,030.9,8.7,0000.0,0003.49,0007.90,0003.06
2023-10-10 08:14:00,SystemResetWarning,0824.8,5.00,000.00,029.3,027.8,000.0,037.7,030.9,8.7,0000.0,0003.48,0008.05,0003.05
2023-10-10 08:15:00,SystemResetWarning,0824.8,5.00,000.00,029.3,027.8,000.0,037.7,030.9,8.7,0000.0,0003.48,0008.37,0003.05
2023-10-10 08:16:00,SystemResetWarning,0824.8,5.00,000.00,029.3,027.8,000.0,037.7,030.9,8.8,0000.0,0003.46,0008.86,0003.03
2023-10-10 08:17:00,SystemResetWarning,0824.7,5.00,000.00,029.3,027.8,000.0,037.7,030.9,8.7,0000.0,0003.42,0008.39,0003.01
2023-10-10 08:18:00,SystemResetWarning,0824.7,5.00,000.00,029.3,027.8,000.0,037.7,030.9,8.8,0000.0,0003.40,0008.31,0003.01
2023-10-10 08:19:00,SystemResetWarning,0824.7,5.00,000.00,029.3,027.8,000.0,037.7,030.9,8.8,0000.0,0003.38,0008.29,0003.01
2023-10-10 08:20:00,SystemResetWarning,0824.7,5.00,000.00,029.3,027.8,000.0,037.7,030.9,8.8,0000.0,0003.38,0008.62,0003.00
2023-10-10 08:21:00,SystemResetWarning,0824.7,4.99,000.00,029.3,027.8,000.0,037.7,030.9,8.8,0000.0,0003.39,0008.82,0002.99
2023-10-10 08:22:00,SystemResetWarning,0824.7,5.00,000.00,029.3,027.8,000.0,037.7,030.8,8.8,0000.0,0003.39,0008.68,0002.99
2023-10-10 08:23:00,SystemResetWarning,0824.7,5.00,000.00,029.3,027.8,000.0,037.7,030.9,8.8,0000.0,0003.38,0008.60,0002.97
2023-10-10 08:24:00,SystemResetWarning,0824.7,5.00,000.00,029.3,027.8,000.0,037.8,030.9,8.8,0000.0,0003.38,0008.17,0002.97
2023-10-10 08:25:00,SystemResetWarning,0824.7,5.00,000.00,029.3,027.8,000.0,037.7,030.9,8.7,0000.0,0003.36,0007.84,0002.95
2023-10-10 08:26:00,SystemResetWarning,0824.7,5.00,000.00,029.3,027.8,000.0,037.8,030.9,8.7,0000.0,0003.36,0008.11,0002.94
2023-10-10 08:27:00,SystemResetWarning,0824.7,5.00,000.00,029.3,027.8,000.0,037.7,030.9,8.7,0000.0,0003.35,0007.44,0002.93
2023-10-10 08:28:00,SystemResetWarning,0824.7,5.00,000.00,029.3,027.8,000.0,037.7,030.9,8.7,0000.0,0003.35,0007.28,0002.93
2023-10-10 08:29:00,SystemResetWarning,0824.7,5.00,000.00,029.3,027.8,000.0,037.8,030.9,8.7,0000.0,0003.39,0008.13,0002.92
2023-10-10 08:30:00,SystemResetWarning,0824.7,5.00,000.00,029.3,027.8,000.0,037.8,030.8,8.7,0000.0,0003.41,0009.47,0002.91
2023-10-10 08:31:00,SystemResetWarning,0824.7,5.00,000.00,029.3,027.8,000.0,037.8,030.8,8.6,0000.0,0003.42,0009.33,0002.91
2023-10-10 08:32:00,SystemResetWarning,0824.7,5.00,000.00,029.3,027.8,000.0,037.8,030.8,8.6,0000.0,0003.41,0009.11,0002.91
2023-10-10 08:33:00,SystemResetWarning,0824.7,5.00,000.00,029.3,027.8,000.0,037.8,030.9,8.7,0000.0,0003.39,0009.08,0002.89
2023-10-10 08:34:00,SystemResetWarning,0824.7,5.00,000.00,029.3,027.8,000.0,037.8,030.9,8.6,0000.0,0003.42,0009.20,0002.90
2023-10-10 08:35:00,SystemResetWarning,0824.7,5.00,000.00,029.3,027.8,000.0,037.8,030.9,8.5,0000.0,0003.40,0009.20,0002.89
2023-10-10 08:36:00,SystemResetWarning,0824.7,5.00,000.00,029.3,027.8,000.0,037.8,030.9,8.5,0000.0,0003.39,0009.21,0002.86
2023-10-10 08:37:00,SystemResetWarning,0824.7,5.00,000.00,029.3,027.8,000.0,037.8,030.8,8.5,0000.0,0003.37,0008.75,0002.85
2023-10-10 08:38:00,SystemResetWarning,0824.7,5.01,000.00,029.3,027.8,000.0,037.8,030.8,8.5,0000.0,0003.37,0008.69,0002.84
2023-10-10 08:39:00,SystemResetWarning,0824.7,4.99,000.00,029.3,027.8,000.0,037.8,030.8,8.4,0000.0,0003.37,0008.63,0002.83
2023-10-10 08:40:00,SystemResetWarning,0824.7,4.99,000.00,029.3,027.8,000.0,037.8,030.9,8.4,0000.0,0003.30,0007.74,0002.80
2023-10-10 08:41:00,SystemResetWarning,0824.7,4.99,000.00,029.3,027.8,000.0,037.8,030.9,8.4,0000.0,0003.24,0005.61,0002.76
2023-10-10 08:42:00,SystemResetWarning,0824.7,5.00,000.00,029.3,027.8,000.0,037.7,030.9,8.3,0000.0,0003.23,0005.55,0002.73
2023-10-10 08:43:00,SystemResetWarning,0824.7,5.00,000.00,029.3,027.8,000.0,037.7,030.9,8.2,0000.0,0003.22,0005.72,0002.72
2023-10-10 08:44:00,SystemResetWarning,0824.7,5.00,000.00,029.3,027.8,000.0,037.7,030.9,8.2,0000.0,0003.23,0006.22,0002.71
2023-10-10 08:45:00,SystemResetWarning,0824.7,5.01,000.00,029.3,027.8,000.0,037.7,030.9,8.2,0000.0,0003.22,0006.22,0002.68
2023-10-10 08:46:00,SystemResetWarning,0824.7,5.00,000.00,029.3,027.8,000.0,037.8,030.9,8.1,0000.0,0003.21,0006.46,0002.65
2023-10-10 08:47:00,SystemResetWarning,0824.6,5.00,000.00,029.3,027.8,000.0,037.8,030.8,8.1,0000.0,0003.20,0007.40,0002.63
2023-10-10 08:48:00,SystemResetWarning,0824.6,4.99,000.00,029.3,027.8,000.0,037.8,030.8,8.2,0000.0,0003.21,0007.52,0002.61
2023-10-10 08:49:00,SystemResetWarning,0824.7,5.00,000.00,029.3,027.8,000.0,037.8,030.8,8.2,0000.0,0003.22,0007.52,0002.59
2023-10-10 08:50:00,SystemResetWarning,0824.7,5.00,000.00,029.3,027.8,000.0,037.8,030.9,8.2,0000.0,0003.20,0008.17,0002.56
2023-10-10 08:51:00,SystemResetWarning,0824.6,5.00,000.00,029.3,027.8,000.0,037.8,030.9,8.2,0000.0,0003.18,0008.27,0002.55
2023-10-10 08:52:00,SystemResetWarning,0824.7,5.01,000.00,029.3,027.8,000.0,037.8,030.9,8.3,0000.0,0003.16,0008.21,0002.57
2023-10-10 08:53:00,SystemResetWarning,0824.7,5.00,000.00,029.3,027.8,000.0,037.7,030.9,8.4,0000.0,0003.14,0008.42,0002.57
2023-10-10 08:54:00,SystemResetWarning,0824.7,5.01,000.00,029.3,027.8,000.0,037.7,030.9,8.4,0000.0,0003.12,0008.81,0002.56
2023-10-10 08:55:00,SystemResetWarning,0824.7,5.00,000.00,029.3,027.8,000.0,037.7,030.9,8.3,0000.0,0003.13,0008.54,0002.56
2023-10-10 08:56:00,SystemResetWarning,0824.7,5.00,000.00,029.3,027.8,000.0,037.7,030.9,8.2,0000.0,0003.12,0008.45,0002.55
2023-10-10 08:57:00,SystemResetWarning,0824.7,5.00,000.00,029.3,027.8,000.0,037.7,030.9,8.2,0000.0,0003.10,0008.38,0002.54
2023-10-10 08:58:00,SystemResetWarning,0824.7,5.00,000.00,029.3,027.8,000.0,037.7,030.9,8.2,0000.0,0003.12,0007.80,0002.56
2023-10-10 08:59:00,SystemResetWarning,0824.7,5.00,000.00,029.3,027.8,000.0,037.7,030.9,8.1,0000.0,0003.13,0007.63,0002.58
